Date,TemperatureHighF,TemperatureAvgF,TemperatureLowF,DewpointHighF,DewpointAvgF,DewpointLowF,HumidityHigh,HumidityAvg,HumidityLow,PressureMaxIn,PressureMinIn,WindSpeedMaxMPH,WindSpeedAvgMPH,GustSpeedMaxMPH,PrecipitationSumIn
2013-1-1,19.2,5.2,-10.5,12.1,-12.0,-28.7,74,45,39,30.25,30.02,0,0,0,0.00
2013-1-2,21.2,17.5,13.8,15.0,11.7,8.5,80,78,66,30.05,29.93,0,0,0,0.00
2013-1-3,20.7,13.7,9.0,11.4,0.6,-6.8,71,56,42,30.25,30.05,0,0,0,0.00
2013-1-4,38.7,21.9,12.6,14.0,7.2,1.6,72,54,35,30.11,29.99,0,0,0,0.00
2013-1-5,34.2,17.6,10.0,12.3,6.0,0.3,77,61,37,30.08,29.84,0,0,0,0.00
2013-1-6,31.8,16.2,9.1,9.6,4.7,0.3,79,62,36,30.19,29.99,0,0,0,0.00
2013-1-7,43.7,29.9,18.7,19.7,15.0,9.9,68,54,38,29.96,29.87,0,0,0,0.00
2013-1-8,39.7,27.8,16.0,23.7,17.0,7.3,78,64,42,29.96,29.75,0,0,0,0.00
2013-1-9,39.7,30.8,25.0,23.5,15.3,10.3,71,53,39,30.34,29.90,0,0,0,0.00
2013-1-10,43.3,34.7,26.4,28.5,18.5,13.3,79,54,34,30.28,29.72,0,0,0,0.00
2013-1-11,41.2,37.2,34.3,34.5,31.0,28.5,79,78,77,29.72,29.37,0,0,0,0.00
2013-1-12,37.4,13.9,2.3,30.8,0.1,-14.2,78,54,45,30.05,29.37,0,0,0,0.00
2013-1-13,9.1,3.4,-0.9,-7.9,-13.2,-17.2,45,45,45,30.19,30.05,0,0,0,0.00
2013-1-14,19.2,7.5,2.1,-1.5,-10.3,-14.4,45,43,39,30.37,30.19,0,0,0,0.00
2013-1-15,33.3,19.6,8.2,9.9,1.3,-10.7,72,45,35,30.22,29.81,0,0,0,0.00
2013-1-16,35.8,25.5,10.8,28.8,11.0,-8.9,79,55,36,30.22,29.63,0,0,0,0.00
2013-1-17,15.8,10.8,5.0,2.9,-6.3,-14.1,56,46,40,30.34,30.22,0,0,0,0.00
2013-1-18,44.1,29.3,15.8,22.9,16.6,3.0,74,60,41,30.25,29.72,0,0,0,0.00
2013-1-19,38.8,22.8,0.7,26.3,10.1,-16.2,78,59,41,30.19,29.69,0,0,0,0.00
2013-1-20,10.2,1.4,-3.8,-7.4,-15.5,-20.3,44,44,44,30.37,30.22,0,0,0,0.00
2013-1-21,0.0,-7.3,-12.8,-16.8,-23.5,-28.6,44,44,44,30.31,30.22,0,0,0,0.00
2013-1-22,4.1,-4.4,-14.3,-13.0,-20.9,-29.9,44,44,44,30.37,30.19,0,0,0,0.00
2013-1-23,16.2,5.8,-6.5,-0.3,-12.3,-25.1,52,42,39,30.58,30.11,0,0,0,0.00
2013-1-24,12.0,1.2,-8.0,-8.2,-18.1,-26.4,39,39,39,30.64,30.14,0,0,0,0.00
2013-1-25,19.6,12.4,2.7,3.7,-5.4,-14.8,54,44,39,30.28,29.93,0,0,0,0.00
2013-1-26,23.2,12.4,-2.4,3.8,-6.4,-19.4,44,42,39,30.31,30.08,0,0,0,0.00
2013-1-27,33.6,29.0,22.1,25.0,15.7,3.5,78,59,41,30.08,29.78,0,0,0,0.00
2013-1-28,35.4,32.2,30.4,29.2,26.1,24.3,78,78,78,29.90,29.63,0,0,0,0.00
2013-1-29,35.6,31.7,26.6,27.1,23.0,14.2,78,70,58,29.75,29.52,0,0,0,0.00
2013-1-30,26.4,16.0,6.4,13.3,2.7,-7.1,65,55,48,29.75,29.66,0,0,0,0.00
2013-1-31,6.4,0.2,-9.8,-7.1,-12.9,-22.3,53,53,53,30.22,29.75,0,0,0,0.00
2013-2-1,5.0,-4.4,-14.8,-8.4,-17.2,-27.0,53,53,53,30.28,30.02,0,0,0,0.00
2013-2-2,16.5,6.3,0.3,-1.0,-9.9,-12.8,53,47,39,30.17,29.96,0,0,0,0.00
2013-2-3,13.8,9.2,2.3,-6.6,-10.8,-17.1,39,39,39,30.08,29.96,0,0,0,0.00
2013-2-4,18.7,10.1,2.8,-2.0,-9.6,-16.6,45,40,38,30.05,29.72,0,0,0,0.00
2013-2-5,32.5,21.0,6.6,20.6,8.9,-8.5,79,60,41,30.05,29.63,0,0,0,0.00
2013-2-6,26.8,15.3,2.8,17.8,3.8,-12.0,75,60,49,30.08,29.90,0,0,0,0.00
2013-2-7,26.6,24.5,21.9,19.8,16.6,13.2,80,72,57,30.22,29.99,0,0,0,0.00
2013-2-8,35.4,23.0,14.0,15.7,9.4,2.7,70,57,36,30.34,30.19,0,0,0,0.00
2013-2-9,31.8,28.2,24.4,24.2,20.3,15.7,79,72,65,30.19,29.93,0,0,0,0.00
2013-2-10,32.7,30.1,27.7,26.6,23.9,21.4,79,78,75,29.93,29.28,0,0,0,0.00
2013-2-11,29.3,23.8,14.2,23.6,13.3,5.2,79,64,52,30.02,29.34,0,0,0,0.00
2013-2-12,39.4,24.1,12.6,16.4,11.0,4.0,73,58,39,30.02,29.78,0,0,0,0.00
2013-2-13,42.3,29.0,18.5,26.6,17.5,11.0,78,63,39,29.78,29.57,0,0,0,0.00
2013-2-14,32.5,24.9,10.8,26.3,12.4,-6.5,79,61,35,30.17,29.57,0,0,0,0.00
2013-2-15,21.7,10.0,2.1,0.5,-8.4,-16.7,45,43,37,30.28,30.17,0,0,0,0.00
2013-2-16,25.9,10.4,-2.2,4.7,-8.8,-20.7,57,41,37,30.22,30.08,0,0,0,0.00
2013-2-17,35.1,22.2,8.6,15.4,4.8,-9.4,57,47,41,30.08,29.60,0,0,0,0.00
2013-2-18,33.3,22.7,6.4,26.5,10.3,-7.1,76,59,49,29.78,29.52,0,0,0,0.00
2013-2-19,10.8,3.8,-2.4,-3.0,-9.5,-15.3,53,53,53,30.31,29.78,0,0,0,0.00
2013-2-20,19.8,6.0,-7.6,-0.2,-10.6,-20.2,53,46,36,30.43,30.31,0,0,0,0.00
2013-2-21,24.8,15.0,3.2,7.3,-3.9,-15.3,54,42,38,30.40,30.08,0,0,0,0.00
2013-2-22,29.1,22.9,19.6,21.1,13.6,7.2,77,67,49,30.08,29.84,0,0,0,0.00
2013-2-23,40.6,24.4,16.5,19.9,13.5,6.6,80,64,39,29.93,29.84,0,0,0,0.00
2013-2-24,44.1,23.2,5.4,19.0,9.0,-2.3,78,56,34,30.08,29.93,0,0,0,0.00
2013-2-25,47.1,29.1,18.0,19.9,13.9,8.7,70,54,32,30.08,30.02,0,0,0,0.00
2013-2-26,39.2,25.3,12.2,22.1,14.7,7.2,80,65,44,30.05,29.87,0,0,0,0.00
2013-2-27,42.4,31.8,26.8,19.7,17.0,14.7,70,55,38,30.02,29.87,0,0,0,0.00
2013-2-28,30.2,27.6,23.0,15.3,12.0,7.0,63,52,46,30.19,30.02,0,0,0,0.00
2013-3-1,36.9,24.5,14.9,13.0,7.3,2.8,58,48,37,30.34,30.19,0,0,0,0.00
2013-3-2,40.1,22.0,7.0,10.3,3.5,-3.7,74,46,29,30.31,30.14,0,0,0,0.00
2013-3-3,36.1,27.0,19.0,7.6,3.7,-0.3,44,37,30,30.14,29.96,0,0,0,0.00
2013-3-4,27.3,24.6,22.6,18.5,12.0,2.4,79,60,34,30.02,29.93,0,0,0,0.00
2013-3-5,30.0,25.1,20.3,23.8,18.2,13.2,79,75,57,30.28,29.96,0,0,0,0.00
2013-3-6,36.7,21.6,9.7,14.9,8.9,-0.7,73,58,39,30.40,30.28,0,0,0,0.00
2013-3-7,38.1,22.3,6.8,14.9,6.4,-3.5,75,51,36,30.34,30.25,0,0,0,0.00
2013-3-8,44.2,31.0,18.3,23.2,17.0,9.8,76,57,38,30.28,30.08,0,0,0,0.00
2013-3-9,37.0,35.2,33.1,30.5,28.4,20.8,78,76,57,30.08,29.69,0,0,0,0.00
2013-3-10,34.2,32.3,28.4,27.7,22.7,16.9,78,68,59,29.96,29.78,0,0,0,0.00
2013-3-11,29.5,26.4,20.7,16.9,14.2,10.5,65,60,50,29.87,29.75,0,0,0,0.00
2013-3-12,29.1,23.7,19.2,10.6,7.1,2.1,65,49,37,30.17,29.81,0,0,0,0.00
2013-3-13,38.1,22.6,10.9,10.8,6.3,3.1,70,51,31,30.34,30.17,0,0,0,0.00
2013-3-14,50.0,32.9,23.5,24.1,17.2,9.7,79,54,34,30.22,30.02,0,0,0,0.00
2013-3-15,34.2,31.9,30.0,27.5,23.8,18.7,78,72,62,30.02,29.84,0,0,0,0.00
2013-3-18,24.6,17.0,10.0,19.0,4.2,-2.9,79,57,46,29.81,29.60,0,0,0,0.00
2013-3-19,23.5,12.8,4.6,1.1,-4.7,-12.2,55,46,35,30.17,29.81,0,0,0,0.00
2013-3-20,23.4,12.0,1.9,-0.2,-8.9,-17.9,41,38,35,30.19,30.11,0,0,0,0.00
2013-3-21,32.5,17.0,3.0,6.6,-3.7,-15.4,52,39,33,30.11,30.02,0,0,0,0.00
2013-3-22,42.8,24.6,8.1,12.7,3.4,-7.6,54,41,29,30.08,30.02,0,0,0,0.00
2013-3-23,42.6,28.2,15.8,13.3,8.7,4.7,64,45,30,30.14,30.05,0,0,0,0.00
2013-3-24,33.6,28.9,25.9,21.4,15.7,12.0,78,58,43,30.08,29.99,0,0,0,0.00
2013-3-25,39.7,30.1,21.0,13.9,10.4,6.3,56,44,32,30.19,30.05,0,0,0,0.00
2013-3-26,45.0,31.3,22.5,16.8,12.6,10.1,62,47,32,30.28,30.19,0,0,0,0.00
2013-3-27,48.7,33.1,19.2,17.1,11.7,6.3,68,43,28,30.31,30.28,0,0,0,0.00
2013-3-28,51.8,36.1,20.1,22.0,14.7,5.6,66,43,27,30.31,30.25,0,0,0,0.00
2013-3-29,56.1,41.0,30.2,30.8,23.4,15.1,63,50,34,30.25,30.05,0,0,0,0.00
2013-3-30,54.7,44.5,34.5,39.1,31.3,25.3,77,61,45,30.05,29.84,0,0,0,0.00
2013-3-31,38.1,33.0,22.8,27.3,17.6,5.4,79,56,32,30.08,29.81,0,0,0,0.00
2013-4-1,35.4,24.8,16.0,10.4,6.4,2.8,58,46,34,30.25,30.08,0,0,0,0.00
2013-4-2,38.3,27.3,16.5,12.7,8.5,4.1,76,47,31,30.34,30.22,0,0,0,0.00
2013-4-3,47.7,34.3,15.8,23.6,13.3,0.9,61,43,29,30.37,30.02,0,0,0,0.00
2013-4-4,50.2,41.9,31.1,27.5,20.1,12.8,65,42,31,30.17,29.99,0,0,0,0.00
2013-4-5,43.9,33.3,23.9,28.2,18.3,10.5,78,56,30,30.22,29.90,0,0,0,0.00
2013-4-6,55.0,40.9,35.6,37.2,27.8,19.8,77,61,37,29.90,29.52,0,0,0,0.00
2013-4-7,52.0,41.1,34.7,34.2,27.3,22.5,76,60,37,29.93,29.75,0,0,0,0.00
2013-4-8,45.5,41.5,39.4,37.7,34.2,31.4,77,75,71,30.05,29.69,0,0,0,0.00
2013-4-9,46.6,37.8,32.0,31.3,24.1,16.8,75,59,39,30.17,29.99,0,0,0,0.00
2013-4-10,38.7,34.5,30.0,24.5,18.6,13.8,79,54,39,30.19,29.90,0,0,0,0.00
2013-4-11,34.7,32.6,29.3,27.5,23.7,14.3,78,70,44,29.93,29.69,0,0,0,0.00
2013-4-12,35.4,30.6,26.8,24.4,21.6,17.7,78,70,48,29.84,29.69,0,0,0,0.00
2013-4-13,36.9,32.1,27.9,22.9,18.3,13.9,79,58,42,29.96,29.81,0,0,0,0.00
2013-4-14,36.1,32.1,29.3,29.6,21.9,13.5,78,67,47,29.93,29.49,0,0,0,0.00
2013-4-15,40.8,35.4,31.8,29.4,21.7,18.2,77,58,43,29.96,29.52,0,0,0,0.00
2013-4-16,47.7,37.8,32.2,23.1,19.7,17.7,64,49,35,30.31,29.96,0,0,0,0.00
2013-4-17,40.5,36.7,34.0,22.6,20.1,18.1,55,51,46,30.31,30.05,0,0,0,0.00
2013-4-18,32.5,31.7,30.7,26.3,25.6,24.4,78,78,76,29.78,29.52,0,0,0,0.00
2013-4-19,37.9,31.8,27.9,24.3,18.2,8.0,78,59,39,29.99,29.52,0,0,0,0.00
2013-4-20,48.4,33.6,19.4,15.3,10.4,5.8,73,40,24,30.28,29.99,0,0,0,0.00
2013-4-21,49.8,40.3,32.5,39.6,29.0,8.6,77,65,33,30.28,29.99,0,0,0,0.00
2013-4-22,45.3,36.6,31.3,31.4,25.6,19.3,78,66,39,30.22,30.11,0,0,0,0.00
2013-4-23,42.1,33.4,25.5,25.2,17.8,10.7,78,55,32,30.17,30.05,0,0,0,0.00
2013-4-24,52.5,37.0,25.3,29.8,21.4,14.3,77,57,28,30.08,29.90,0,0,0,0.00
2013-4-25,52.7,41.6,30.4,28.3,22.3,18.3,77,50,28,30.19,29.99,0,0,0,0.00
2013-4-26,72.7,58.0,44.8,37.2,29.7,20.8,57,35,23,30.14,29.96,0,0,0,0.00
2013-4-27,76.3,60.9,37.4,36.7,29.7,20.8,57,33,18,30.14,29.90,0,0,0,0.00
2013-4-28,81.7,63.9,50.5,50.7,39.0,35.5,73,43,22,29.90,29.66,0,0,0,0.00
2013-4-29,76.3,62.6,47.5,50.0,37.1,29.8,75,42,22,29.84,29.57,0,0,0,0.00
2013-4-30,68.7,63.6,54.9,52.6,38.3,24.3,67,41,23,29.96,29.43,0,0,0,0.00
2013-5-1,54.5,40.6,33.1,33.0,25.0,17.8,79,56,35,30.46,29.99,0,0,0,0.00
2013-5-2,47.8,39.4,34.5,21.0,18.3,15.6,53,43,33,30.52,30.40,0,0,0,0.00
2013-5-3,36.9,33.8,30.6,29.0,22.6,15.7,78,64,45,30.40,30.17,0,0,0,0.00
2013-5-4,48.9,38.6,32.4,36.2,30.6,26.1,78,73,55,30.19,30.11,0,0,0,0.00
2013-5-5,67.5,50.0,37.4,41.6,33.9,30.5,77,57,34,30.17,30.08,0,0,0,0.00
2013-5-6,78.1,61.6,43.5,44.6,37.4,33.3,76,46,23,30.14,30.02,0,0,0,0.00
2013-5-7,81.1,67.3,52.0,47.1,39.2,34.1,70,39,21,30.08,29.96,0,0,0,0.00
2013-5-8,78.1,66.4,58.6,45.6,41.5,35.9,54,41,23,30.02,29.96,0,0,0,0.00
2013-5-9,64.6,53.4,42.8,49.1,40.4,19.5,74,62,39,30.14,29.96,0,0,0,0.00
2013-5-10,70.2,52.5,34.7,29.3,22.4,18.5,54,33,19,30.14,29.87,0,0,0,0.00
2013-5-11,56.8,46.1,37.2,30.6,19.4,13.4,48,35,27,30.17,29.87,0,0,0,0.00
2013-5-12,58.6,45.8,32.9,21.5,16.9,12.2,48,32,22,30.22,30.08,0,0,0,0.00
2013-5-13,71.6,56.4,36.3,38.0,27.0,15.8,51,33,24,30.11,29.63,0,0,0,0.00
2013-5-14,99.3,75.0,51.8,45.8,37.7,30.3,55,28,15,29.69,29.49,0,0,0,0.00
2013-5-15,80.1,66.4,51.3,39.2,36.7,33.2,57,35,22,29.93,29.72,0,0,0,0.00
2013-5-16,84.4,70.9,52.9,41.8,36.1,28.0,60,30,19,29.93,29.84,0,0,0,0.00
2013-5-17,68.4,59.1,55.8,48.6,42.8,26.9,74,59,22,30.02,29.90,0,0,0,0.00
2013-5-18,81.3,66.0,55.4,60.2,51.2,46.9,73,61,36,30.02,29.81,0,0,0,0.00
2013-5-19,83.7,68.6,62.6,61.8,56.0,53.1,73,65,37,29.84,29.57,0,0,0,0.00
2013-5-20,73.0,66.2,61.7,57.8,51.0,45.8,71,59,42,29.60,29.52,0,0,0,0.00
2013-5-21,62.4,54.6,46.2,50.9,45.9,38.4,74,72,66,29.75,29.55,0,0,0,0.00
2013-5-22,52.2,48.3,43.9,43.8,39.9,35.4,75,73,55,30.02,29.72,0,0,0,0.00
2013-5-23,67.3,54.5,42.4,37.9,28.3,18.9,74,40,23,30.34,30.02,0,0,0,0.00
2013-5-24,70.5,56.5,37.8,47.2,30.4,18.3,74,39,25,30.37,30.19,0,0,0,0.00
2013-5-25,63.7,57.0,52.5,45.2,39.9,33.6,74,54,37,30.25,30.22,0,0,0,0.00
2013-5-26,58.3,55.8,52.7,39.7,33.4,28.6,51,43,35,30.22,30.05,0,0,0,0.00
2013-5-27,61.2,57.3,53.6,48.6,43.7,37.8,74,61,48,30.05,29.84,0,0,0,0.00
2013-5-28,60.6,56.7,53.2,51.5,48.0,44.8,73,73,72,29.84,29.72,0,0,0,0.00
2013-5-29,76.8,66.0,54.7,63.1,54.1,46.2,73,66,45,29.84,29.66,0,0,0,0.00
2013-5-30,80.2,68.7,63.5,61.0,55.1,50.2,72,63,37,29.69,29.55,0,0,0,0.00
2013-5-31,80.6,67.6,60.6,55.6,46.9,39.7,72,50,30,29.57,29.52,0,0,0,0.00
2013-6-1,75.6,60.8,50.7,56.5,45.1,36.1,74,58,33,29.95,29.57,0,0,0,0.00
2013-6-2,69.4,56.9,47.1,41.2,33.1,29.5,74,43,26,30.10,29.95,0,0,0,0.00
2013-6-3,75.0,62.0,46.4,44.3,35.6,29.9,73,40,23,30.07,29.95,0,0,0,0.00
2013-6-4,64.4,59.5,53.1,47.4,41.3,35.0,74,52,36,30.10,29.99,0,0,0,0.00
2013-6-5,65.5,56.7,53.1,56.2,47.9,45.0,74,72,62,30.04,29.95,0,0,0,0.00
2013-6-6,56.8,54.4,49.3,48.3,45.9,41.3,74,73,71,30.04,29.99,0,0,0,0.00
2013-6-7,66.7,57.9,51.8,47.5,43.5,39.2,73,60,39,30.07,29.93,0,0,0,0.00
2013-6-8,72.3,64.0,54.1,51.0,44.9,40.1,74,52,34,29.93,29.90,0,0,0,0.00
2013-6-9,64.0,59.9,56.7,53.1,50.3,46.9,73,71,55,29.93,29.81,0,0,0,0.00
2013-6-10,83.1,67.0,59.0,58.3,51.8,47.6,73,61,33,29.87,29.81,0,0,0,0.00
2013-6-11,80.2,67.3,56.1,63.0,55.4,47.6,73,66,48,29.93,29.84,0,0,0,0.00
2013-6-12,76.1,65.9,58.8,61.7,51.9,42.8,74,62,39,29.95,29.78,0,0,0,0.00
2013-6-13,81.1,69.2,56.1,49.0,43.6,41.1,67,41,27,30.10,29.95,0,0,0,0.00
2013-6-14,65.8,61.6,55.8,47.2,43.4,39.4,66,52,42,30.10,30.04,0,0,0,0.00
2013-6-17,83.8,75.4,62.8,48.9,45.3,42.4,53,35,24,30.04,29.93,0,0,0,0.00
2013-6-18,78.1,66.0,52.7,48.5,44.2,37.8,64,47,31,30.10,30.04,0,0,0,0.00
2013-6-19,90.5,74.8,59.2,53.7,49.1,44.7,70,43,24,30.07,29.95,0,0,0,0.00
2013-6-20,92.3,80.2,70.0,56.5,53.0,48.9,60,41,27,30.01,29.90,0,0,0,0.00
2013-6-21,80.8,76.3,69.3,59.8,55.3,52.1,71,50,37,29.90,29.78,0,0,0,0.00
2013-6-24,89.2,78.6,67.8,63.9,58.3,51.8,71,52,29,29.93,29.81,0,0,0,0.00
2013-6-25,88.5,76.6,64.2,66.0,58.9,54.6,72,56,34,29.87,29.75,0,0,0,0.00
2013-6-26,92.3,80.9,71.4,72.5,61.2,52.8,70,54,30,29.84,29.69,0,0,0,0.00
2013-6-27,86.5,80.8,69.3,60.7,50.9,41.5,72,37,21,29.84,29.81,0,0,0,0.00
2013-6-28,78.3,70.8,64.9,57.8,50.7,44.2,72,50,36,29.84,29.78,0,0,0,0.00
2013-6-29,79.9,69.3,61.7,56.5,48.2,37.8,73,51,28,30.01,29.78,0,0,0,0.00
2013-6-30,84.7,70.4,55.6,50.5,43.4,37.3,74,43,21,30.13,30.01,0,0,0,0.00
2013-7-1,87.6,74.7,60.4,54.3,46.1,39.4,73,41,20,30.19,30.13,0,0,0,0.00
2013-7-2,87.1,75.6,58.5,51.3,43.4,38.7,68,36,20,30.19,30.07,0,0,0,0.00
2013-7-3,93.4,83.1,67.5,60.6,41.8,37.9,70,25,18,30.10,29.95,0,0,0,0.00
2013-7-4,94.6,78.6,62.2,53.7,47.5,37.9,65,37,18,29.99,29.87,0,0,0,0.00
2013-7-5,91.0,79.4,68.2,53.6,50.6,45.1,52,37,27,29.93,29.81,0,0,0,0.00
2013-7-6,90.7,79.7,72.7,56.6,53.5,50.8,49,41,31,29.90,29.84,0,0,0,0.00
2013-7-7,98.6,82.7,71.1,60.8,57.8,53.2,70,45,26,29.93,29.84,0,0,0,0.00
2013-7-8,89.6,75.4,63.1,60.8,58.7,53.6,71,58,32,30.04,29.93,0,0,0,0.00
2013-7-9,89.2,78.4,67.8,73.2,61.3,55.9,72,57,38,29.99,29.78,0,0,0,0.00
2013-7-10,81.0,71.0,60.6,57.6,48.0,41.9,71,47,27,30.07,29.95,0,0,0,0.00
2013-7-11,90.7,77.6,58.5,60.6,48.7,44.4,74,42,22,30.13,29.99,0,0,0,0.00
2013-7-12,90.1,85.1,70.5,53.0,48.9,44.5,48,29,22,30.01,29.90,0,0,0,0.00
2013-7-13,84.9,84.1,67.1,55.8,50.3,50.0,67,32,30,30.04,29.93,0,0,0,0.00
2013-7-18,97.9,91.1,81.3,63.5,60.0,56.5,50,36,27,30.04,29.78,0,0,0,0.00
2013-7-19,85.8,78.3,70.0,66.0,54.5,47.3,70,45,28,29.93,29.75,0,0,0,0.00
2013-7-20,82.4,71.7,62.4,59.3,50.9,44.5,73,51,30,29.99,29.90,0,0,0,0.00
2013-7-21,86.0,70.6,57.7,61.4,52.3,37.8,74,54,34,29.99,29.81,0,0,0,0.00
2013-7-22,88.9,75.4,66.6,66.1,55.9,48.1,72,53,30,29.87,29.69,0,0,0,0.00
2013-7-23,78.4,70.4,57.7,50.5,44.6,40.5,74,41,27,30.04,29.90,0,0,0,0.00
2013-7-24,86.5,72.0,60.8,54.7,46.5,42.1,70,42,27,30.10,29.99,0,0,0,0.00
2013-7-25,85.3,74.5,61.7,58.5,51.8,46.2,72,47,31,29.99,29.93,0,0,0,0.00
2013-7-26,77.9,67.9,60.4,53.1,45.1,39.9,71,45,34,30.10,29.93,0,0,0,0.00
2013-7-27,64.9,60.7,54.9,45.6,40.9,36.0,66,49,40,30.10,29.95,0,0,0,0.00
2013-7-28,70.5,61.4,51.8,45.5,40.2,38.0,68,47,34,30.07,29.99,0,0,0,0.00
2013-7-29,83.7,66.9,53.1,57.8,46.8,43.0,75,53,27,30.13,30.07,0,0,0,0.00
2013-7-30,72.9,68.6,62.1,61.1,57.2,52.9,72,67,59,30.13,30.07,0,0,0,0.00
2013-7-31,84.2,74.0,62.1,61.7,52.6,43.9,72,51,28,30.10,30.01,0,0,0,0.00
2013-8-1,90.1,77.6,62.2,55.5,46.5,41.2,70,35,22,30.04,29.90,0,0,0,0.00
2013-8-2,76.3,69.0,58.6,53.8,45.4,40.3,71,45,29,30.07,29.87,0,0,0,0.00
2013-8-3,79.0,68.6,53.6,50.9,42.7,37.9,75,42,26,30.22,30.07,0,0,0,0.00
2013-8-4,81.5,65.7,53.1,53.9,45.4,41.6,75,50,30,30.25,30.04,0,0,0,0.00
2013-8-5,87.4,70.0,59.9,64.4,55.4,47.9,74,61,33,30.04,29.81,0,0,0,0.00
2013-8-6,90.5,72.0,57.0,62.1,54.3,48.4,73,57,30,29.87,29.72,0,0,0,0.00
2013-8-7,79.2,66.5,57.4,53.4,45.6,37.9,73,51,24,30.04,29.81,0,0,0,0.00
2013-8-8,84.9,67.6,54.9,57.5,49.5,44.6,75,55,29,30.07,30.01,0,0,0,0.00
2013-8-9,75.6,71.2,58.8,57.5,46.0,40.8,72,42,30,30.13,30.01,0,0,0,0.00
2013-8-10,75.6,72.1,69.4,44.1,43.5,42.8,40,36,31,30.19,30.10,0,0,0,0.00
2013-8-11,69.4,69.4,69.4,44.1,44.1,44.1,40,40,40,30.10,30.01,0,0,0,0.00
2013-8-12,79.3,73.4,60.4,52.5,44.9,42.4,72,38,28,30.07,30.01,0,0,0,0.00
2013-8-13,78.3,73.9,55.2,53.6,40.5,35.3,75,32,24,30.22,30.07,0,0,0,0.00
2013-8-14,83.3,73.0,53.2,54.0,41.4,37.9,75,33,23,30.22,30.10,0,0,0,0.00
2013-8-15,86.9,72.7,55.2,59.3,46.8,40.6,74,42,27,30.13,30.10,0,0,0,0.00
2013-8-16,87.3,71.8,57.0,59.1,48.4,39.9,74,48,22,30.22,30.13,0,0,0,0.00
2013-8-17,88.7,71.5,57.0,59.9,48.1,43.2,74,48,23,30.22,30.13,0,0,0,0.00
2013-8-18,88.2,73.0,58.8,55.7,49.1,45.3,73,46,25,30.16,30.01,0,0,0,0.00
2013-8-19,92.5,76.3,66.0,60.4,55.6,48.8,66,50,29,30.04,29.93,0,0,0,0.00
2013-8-20,94.5,80.5,69.6,65.5,60.9,57.8,71,54,32,29.93,29.90,0,0,0,0.00
2013-8-21,88.5,80.8,71.1,68.8,64.6,60.8,71,59,42,30.04,29.87,0,0,0,0.00
2013-8-22,88.3,79.7,65.3,65.0,47.2,38.0,52,34,19,30.16,30.01,0,0,0,0.00
2013-8-23,91.6,75.3,59.2,60.6,49.5,40.2,67,42,25,30.16,30.04,0,0,0,0.00
2013-8-24,91.9,79.5,70.0,65.8,60.7,56.7,70,54,31,30.07,29.95,0,0,0,0.00
2013-8-25,102.4,86.2,77.2,68.2,63.4,59.9,68,49,26,30.01,29.95,0,0,0,0.00
2013-8-26,99.5,86.7,75.4,70.8,65.7,59.3,71,53,28,30.01,29.87,0,0,0,0.00
2013-8-27,95.9,84.5,75.0,70.1,66.0,61.5,71,56,35,29.95,29.84,0,0,0,0.00
2013-8-28,97.5,81.4,69.6,68.8,58.9,53.2,72,50,26,30.04,29.95,0,0,0,0.00
2013-8-29,99.1,87.2,73.9,72.2,59.9,54.8,69,41,26,30.01,29.87,0,0,0,0.00
2013-8-30,88.3,81.0,70.5,61.3,56.7,52.3,71,45,31,29.95,29.84,0,0,0,0.00
2013-8-31,96.3,76.6,63.3,63.5,56.9,53.3,73,54,27,29.93,29.72,0,0,0,0.00
2013-9-1,71.4,67.1,59.0,59.3,53.3,47.2,72,62,46,30.01,29.75,0,0,0,0.00
2013-9-2,69.8,58.3,51.4,48.6,45.5,41.6,75,64,38,30.10,30.01,0,0,0,0.00
2013-9-3,86.5,68.7,50.7,58.9,47.6,43.1,75,51,28,30.10,30.01,0,0,0,0.00
2013-9-4,89.6,77.9,61.9,61.6,52.2,49.1,72,43,28,30.16,30.01,0,0,0,0.00
2013-9-5,87.4,73.6,62.4,60.0,50.7,44.1,69,46,29,30.25,30.13,0,0,0,0.00
2013-9-6,95.7,79.5,69.4,65.9,57.8,53.1,72,51,26,30.13,29.90,0,0,0,0.00
2013-9-7,95.0,80.2,68.7,64.8,57.8,52.2,72,49,26,30.04,29.90,0,0,0,0.00
2013-9-8,73.9,68.7,64.6,59.0,51.7,45.7,69,55,44,30.07,29.90,0,0,0,0.00
2013-9-9,98.4,78.7,68.2,70.9,61.1,56.6,72,58,28,29.90,29.66,0,0,0,0.00
2013-9-10,91.0,78.9,66.6,66.5,58.7,50.6,72,53,31,30.01,29.81,0,0,0,0.00
2013-9-11,84.6,82.0,69.4,62.1,46.8,39.0,70,30,21,30.07,30.01,0,0,0,0.00
2013-9-12,81.3,69.6,54.0,47.5,40.0,35.1,75,37,23,30.25,30.07,0,0,0,0.00
2013-9-13,79.5,67.4,46.0,49.6,38.1,34.2,77,37,23,30.28,30.10,0,0,0,0.00
2013-9-14,79.0,68.4,55.8,50.5,41.8,37.4,74,43,23,30.10,29.93,0,0,0,0.00
2013-9-15,63.5,58.3,50.2,52.0,47.5,39.8,73,67,49,30.34,29.90,0,0,0,0.00
2013-9-16,74.3,55.7,41.9,41.3,35.2,31.0,77,50,25,30.40,30.25,0,0,0,0.00
2013-9-17,68.9,57.4,47.3,49.6,42.8,33.4,74,59,40,30.25,29.95,0,0,0,0.00
2013-9-18,77.0,67.2,58.6,64.6,57.1,49.6,73,70,63,29.95,29.72,0,0,0,0.00
2013-9-19,85.8,70.6,63.0,71.9,58.9,49.3,73,67,40,29.81,29.66,0,0,0,0.00
2013-9-20,65.1,57.6,49.5,51.4,45.5,36.8,75,65,38,29.95,29.81,0,0,0,0.00
2013-9-21,68.2,53.7,45.5,41.9,38.5,35.4,75,59,33,30.01,29.93,0,0,0,0.00
2013-9-22,78.3,60.7,46.6,47.4,42.9,39.1,76,55,32,29.99,29.87,0,0,0,0.00
2013-9-23,78.3,64.5,53.8,47.3,43.8,40.3,70,49,30,29.95,29.90,0,0,0,0.00
2013-9-24,82.8,64.4,52.2,48.3,43.7,41.3,74,50,26,29.99,29.93,0,0,0,0.00
2013-9-25,79.9,63.9,50.9,56.2,44.4,40.5,75,53,28,29.99,29.90,0,0,0,0.00
2013-9-26,84.9,69.1,56.8,53.2,47.7,43.6,68,49,30,29.93,29.84,0,0,0,0.00
2013-9-27,86.4,72.6,65.5,58.0,53.2,48.8,69,53,30,29.93,29.81,0,0,0,0.00
2013-9-28,71.8,60.3,47.3,55.7,47.7,37.5,75,64,47,29.95,29.66,0,0,0,0.00
2013-9-29,81.1,62.0,45.5,47.5,38.7,34.5,76,47,22,29.95,29.81,0,0,0,0.00
2013-9-30,84.7,68.4,59.0,44.7,40.2,35.7,46,37,23,29.81,29.60,0,0,0,0.00
2013-10-1,79.7,65.9,51.8,45.0,36.3,26.1,54,35,20,30.01,29.60,0,0,0,0.00
2013-10-2,78.1,60.2,44.2,49.3,36.4,28.6,75,46,21,30.07,29.87,0,0,0,0.00
2013-10-3,58.1,56.7,54.0,48.7,47.7,45.5,73,72,71,29.95,29.87,0,0,0,0.00
2013-10-4,58.1,56.0,53.6,49.9,47.4,44.8,74,73,71,30.01,29.87,0,0,0,0.00
2013-10-5,64.9,54.8,41.9,54.9,44.9,35.2,77,70,49,29.87,29.75,0,0,0,0.00
2013-10-6,52.9,46.3,39.9,44.6,38.7,33.3,77,75,73,29.87,29.72,0,0,0,0.00
2013-10-7,74.5,53.2,42.3,40.9,35.5,29.2,75,55,24,29.99,29.84,0,0,0,0.00
2013-10-8,79.3,63.0,48.9,40.8,36.8,33.0,65,41,23,29.99,29.81,0,0,0,0.00
2013-10-9,80.4,65.6,57.6,44.3,40.3,37.2,53,40,27,30.04,29.93,0,0,0,0.00
2013-10-10,82.6,63.9,51.1,47.4,40.5,37.1,66,44,26,30.04,29.90,0,0,0,0.00
2013-10-11,74.8,65.4,56.1,54.3,45.5,41.7,73,50,33,29.90,29.63,0,0,0,0.00
2013-10-12,58.6,50.1,43.0,49.1,37.1,31.6,74,62,40,30.16,29.72,0,0,0,0.00
2013-10-13,66.4,47.6,36.1,36.1,29.7,23.3,78,54,26,30.43,30.19,0,0,0,0.00
2013-10-14,54.3,48.0,39.4,41.3,32.2,27.9,77,56,37,30.40,29.99,0,0,0,0.00
2013-10-15,52.9,49.4,44.8,44.1,41.0,36.7,75,73,72,29.99,29.69,0,0,0,0.00
2013-10-16,57.6,45.4,37.4,37.0,32.1,24.9,76,62,35,29.95,29.84,0,0,0,0.00
2013-10-17,63.1,46.8,37.6,40.3,34.6,28.4,77,65,32,29.90,29.78,0,0,0,0.00
2013-10-18,57.4,43.6,35.6,35.1,27.7,20.0,77,56,28,29.99,29.87,0,0,0,0.00
2013-10-19,47.5,38.7,31.3,37.5,30.0,23.6,77,71,54,29.84,29.69,0,0,0,0.00
2013-10-20,45.0,36.0,29.3,37.7,29.0,22.5,78,76,67,29.87,29.63,0,0,0,0.00
2013-10-21,43.5,33.8,26.8,27.3,15.7,11.6,68,48,37,29.95,29.87,0,0,0,0.00
2013-10-22,40.1,33.0,25.3,28.4,22.3,17.3,79,66,45,30.04,29.95,0,0,0,0.00
2013-10-23,36.3,33.6,31.6,28.1,18.9,12.1,78,56,41,30.10,29.99,0,0,0,0.00
2013-10-24,43.5,36.8,31.6,26.1,19.0,12.9,70,49,39,30.31,30.10,0,0,0,0.00
2013-10-25,59.4,44.2,27.7,32.7,26.4,18.8,76,52,35,30.31,29.78,0,0,0,0.00
2013-10-26,54.1,42.9,35.6,32.7,21.8,18.7,55,43,37,30.10,29.81,0,0,0,0.00
2013-10-27,45.3,41.0,40.8,22.4,19.7,19.5,43,42,40,30.13,29.84,0,0,0,0.00
2013-10-28,47.1,36.8,29.5,21.4,16.7,9.6,63,45,30,30.43,30.13,0,0,0,0.00
2013-10-29,39.0,35.7,28.8,30.2,21.4,15.6,75,56,48,30.40,30.07,0,0,0,0.00
2013-10-30,48.7,44.0,37.4,40.1,36.3,30.2,77,74,72,30.07,29.69,0,0,0,0.00
2013-10-31,48.9,42.1,39.0,40.3,34.4,31.9,77,74,72,29.69,29.42,0,0,0,0.00
2013-11-1,52.5,42.2,35.4,32.3,29.3,24.9,77,62,38,29.87,29.42,0,0,0,0.00
2013-11-2,52.2,39.2,32.4,32.3,24.2,19.5,76,56,35,30.10,29.87,0,0,0,0.00
2013-11-3,58.1,44.7,33.3,29.3,25.8,23.3,76,50,31,30.10,29.90,0,0,0,0.00
2013-11-4,49.5,43.7,32.9,41.9,29.9,24.5,76,59,41,30.13,29.84,0,0,0,0.00
2013-11-5,48.6,35.2,27.1,34.7,23.7,16.9,79,65,33,30.22,30.04,0,0,0,0.00
2013-11-6,42.8,32.8,28.0,26.5,20.5,14.4,77,62,39,30.16,30.01,0,0,0,0.00
2013-11-7,39.9,28.6,22.1,28.3,20.8,16.3,79,73,57,30.22,30.13,0,0,0,0.00
2013-11-8,45.3,35.0,22.8,33.3,21.5,16.4,78,60,38,30.19,29.60,0,0,0,0.00
2013-11-9,42.8,39.7,34.3,34.9,25.4,16.9,75,57,41,30.19,29.63,0,0,0,0.00
2013-11-10,43.3,37.4,27.1,26.0,21.0,13.9,66,52,40,30.31,30.10,0,0,0,0.00
2013-11-11,36.1,23.6,13.5,26.2,5.5,-0.5,67,46,35,30.69,30.10,0,0,0,0.00
2013-11-12,34.2,19.9,9.5,7.6,1.8,-4.2,62,46,32,30.75,30.40,0,0,0,0.00
2013-11-13,53.1,37.6,22.8,26.8,16.6,5.8,49,43,33,30.40,29.87,0,0,0,0.00
2013-11-14,56.3,42.3,36.1,31.2,26.4,22.6,67,54,36,29.87,29.75,0,0,0,0.00
2013-11-15,59.9,44.1,31.5,37.7,28.4,23.5,78,56,33,29.84,29.63,0,0,0,0.00
2013-11-16,49.1,44.7,40.8,40.5,35.8,26.6,76,71,49,29.63,29.25,0,0,0,0.00
2013-11-17,43.3,38.8,30.9,35.1,28.7,16.6,76,67,55,29.81,29.31,0,0,0,0.00
2013-11-18,38.7,29.0,19.9,17.3,12.7,8.3,60,51,39,30.25,29.84,0,0,0,0.00
2013-11-19,49.8,35.3,20.1,21.8,17.7,8.8,71,50,32,30.25,29.90,0,0,0,0.00
2013-11-20,44.4,41.6,37.0,29.7,22.8,17.5,74,49,35,30.01,29.87,0,0,0,0.00
2013-11-21,37.6,29.9,22.6,30.7,19.8,5.1,78,66,46,30.49,30.04,0,0,0,0.00
2013-11-22,37.6,22.3,10.0,8.3,4.0,-6.7,68,46,29,30.60,30.43,0,0,0,0.00
2013-11-23,19.6,10.1,5.0,-3.3,-8.9,-14.5,46,41,35,30.78,30.60,0,0,0,0.00
2013-11-24,32.0,19.4,5.4,8.4,-1.4,-15.3,46,39,35,30.66,29.95,0,0,0,0.00
2013-11-25,37.4,32.7,27.3,22.8,15.3,8.2,67,49,41,30.07,29.87,0,0,0,0.00
2013-11-26,28.4,19.3,10.8,12.6,-0.1,-5.6,52,42,36,30.37,30.07,0,0,0,0.00
2013-11-27,23.4,16.6,6.8,7.3,-1.5,-9.2,73,45,39,30.37,30.04,0,0,0,0.00
2013-11-28,28.6,20.4,9.1,6.1,2.9,-4.6,53,46,38,30.46,30.04,0,0,0,0.00
2013-11-29,32.4,22.2,8.1,13.4,6.5,-5.6,67,51,40,30.49,30.10,0,0,0,0.00
2013-11-30,42.1,31.7,23.4,23.1,16.7,13.0,74,54,39,30.16,30.01,0,0,0,0.00
2013-12-1,35.6,26.6,17.6,24.2,16.0,12.2,80,65,46,30.16,29.90,0,0,0,0.00
2013-12-2,37.4,32.4,28.0,27.7,24.2,19.0,78,72,58,29.90,29.57,0,0,0,0.00
2013-12-3,35.2,33.9,31.5,28.1,26.9,24.8,76,75,75,29.78,29.57,0,0,0,0.00
2013-12-4,31.3,26.9,12.0,24.6,20.2,2.5,77,76,65,29.78,29.48,0,0,0,0.00
2013-12-5,11.7,4.9,-2.6,2.2,-4.3,-11.4,65,65,65,30.31,29.69,0,0,0,0.00
2013-12-6,6.6,-3.5,-9.9,-2.7,-12.4,-18.5,65,65,65,30.58,30.31,0,0,0,0.00
2013-12-7,5.0,-6.4,-14.1,-4.2,-15.1,-22.5,65,65,65,30.66,30.52,0,0,0,0.00
2013-12-8,10.9,5.5,-5.3,1.5,-3.8,-14.0,65,65,65,30.52,30.01,0,0,0,0.00
2013-12-9,9.3,-0.2,-4.9,-0.1,-9.2,-13.7,65,65,65,30.07,29.84,0,0,0,0.00
2013-12-10,10.2,5.6,0.0,0.8,-3.7,-9.0,65,65,65,30.25,29.75,0,0,0,0.00
2013-12-11,4.1,-4.2,-10.7,-5.1,-13.0,-19.2,65,65,65,30.52,30.25,0,0,0,0.00
2013-12-12,20.1,10.6,-0.2,3.2,-2.0,-9.2,65,57,43,30.25,30.10,0,0,0,0.00
2013-12-13,16.5,11.9,9.3,4.0,-1.5,-6.4,62,54,48,30.25,30.10,0,0,0,0.00
2013-12-14,16.7,8.1,-1.8,4.6,-6.8,-15.6,65,50,47,30.25,30.04,0,0,0,0.00
2013-12-15,3.2,-1.5,-3.1,-10.9,-15.3,-16.8,51,51,51,30.13,30.07,0,0,0,0.00
2013-12-16,25.2,15.4,12.6,18.7,7.3,3.3,78,70,66,29.95,29.87,0,0,0,0.00
2013-12-17,32.2,22.1,4.8,23.5,8.9,-9.4,75,57,43,30.07,29.84,0,0,0,0.00
2013-12-18,36.1,23.4,4.1,19.7,9.3,-10.1,75,55,42,30.04,29.63,0,0,0,0.00
2013-12-19,25.5,16.7,14.2,14.3,4.3,-0.9,70,58,48,30.07,29.78,0,0,0,0.00
2013-12-20,18.1,14.3,10.9,9.3,5.3,3.4,71,67,57,30.01,29.84,0,0,0,0.00
2013-12-21,21.6,17.3,14.2,8.9,6.9,5.4,68,63,53,29.99,29.84,0,0,0,0.00
2013-12-22,16.7,12.2,2.8,8.4,2.7,-7.6,72,65,58,30.19,29.93,0,0,0,0.00
2013-12-23,2.7,-2.8,-10.5,-7.8,-13.0,-20.2,61,61,61,30.46,30.19,0,0,0,0.00
2013-12-24,10.0,-1.6,-16.4,-0.7,-11.9,-25.9,61,61,61,30.43,30.10,0,0,0,0.00
2013-12-25,25.9,15.3,8.4,19.1,4.8,-2.3,78,63,51,30.10,30.01,0,0,0,0.00
2013-12-26,26.6,18.9,8.1,20.1,10.8,-0.6,78,70,59,30.13,30.04,0,0,0,0.00
2013-12-27,42.8,28.8,12.6,25.8,19.3,6.1,79,69,43,30.13,29.87,0,0,0,0.00
2013-12-28,48.7,31.2,16.5,28.5,20.8,5.8,79,68,37,29.99,29.63,0,0,0,0.00
2013-12-29,15.8,-2.7,-17.7,4.7,-13.2,-27.4,61,60,59,30.31,30.01,0,0,0,0.00
2013-12-30,1.6,-6.2,-17.5,-9.1,-16.5,-27.2,60,60,60,30.25,30.13,0,0,0,0.00
2013-12-31,-2.6,-7.8,-11.4,-13.0,-18.0,-21.4,60,60,60,30.37,30.16,0,0,0,0.00
2014-1-1,0.0,-4.4,-9.4,-10.7,-14.8,-19.5,60,60,60,30.46,30.34,0,0,0,0.00
2014-1-2,7.0,-6.1,-13.4,-4.0,-16.4,-23.3,60,60,60,30.46,30.34,0,0,0,0.00